RH
14 13 15 19 21 22 23 24 24 25 25 25 26 27 29 37 39 34 29 27 29 27 28 35 35 32 36 40 41 41 45 53 64 82 97 101 100 100 97 95 96 96 99 101 100 99 97 92 88 83 78 73 69 66 63 60 59 57 56 55 54 51 49 46 45 44 45 45 45 46 44 45 45 45 47 50 53 54 53 52 50 46 44 41 39 37
13 14 19 22 22 23 24 24 24 23 23 23 26 28 30 39 39 32 30 26 25 27 31 36 36 35 38 42 44 44 46 49 59 80 96 99 100 98 95 94 97 100 101 100 98 93 88 83 76 71 66 62 58 54 49 45 44 44 43 42 40 40 39 37 35 34 34 35 36 35 33 32 32 32 33 34 36 39 41 42 41 39 37 36 35 34
14 17 21 22 22 24 24 24 22 20 21 24 28 32 35 37 33 29 30 27 25 29 33 36 38 41 44 45 48 51 52 54 63 77 88 95 99 97 94 96 99 100 97 92 87 80 72 63 55 50 47 43 40 37 33 29 26 25 23 22 22 23 25 25 26 25 24 25 25 24 23 22 20 20 19 20 22 25 26 28 28 28 27 27 28 27
17 20 22 22 23 25 25 23 21 19 22 27 31 34 36 37 36 34 31 24 24 30 34 36 39 44 49 49 54 60 61 66 74 80 87 95 98 97 96 98 98 94 88 79 69 57 46 36 30 26 22 20 21 21 21 18 15 12 10 10 12 15 19 22 23 23 22 21 19 18 17 16 15 14 14 13 14 15 15 17 17 17 17 18 19 19
19 22 23 24 24 24 25 22 21 22 25 31 33 34 37 34 32 35 35 28 26 33 38 39 36 38 51 60 64 69 71 75 80 83 90 93 94 98 97 95 91 81 70 58 47 36 26 22 17 12 11 13 14 16 15 13 11 10 8 8 12 18 23 28 31 32 32 31 28 25 21 19 18 16 16 16 14 14 12 12 12 12 12 12 12 12
20 22 23 24 24 23 23 22 24 26 28 34 33 32 35 32 28 31 33 34 34 36 41 42 37 34 50 70 76 80 81 79 79 81 88 90 91 93 88 82 73 59 48 39 34 32 27 23 16 10 15 19 23 25 24 20 16 16 16 14 14 18 25 32 36 40 44 45 45 44 37 28 26 26 25 25 22 20 18 15 14 12 11 10 9 9
21 24 24 24 25 24 23 24 28 28 27 32 32 30 32 27 25 29 33 39 40 39 41 44 42 33 45 71 81 84 85 79 80 85 88 88 86 82 75 67 52 40 37 34 33 32 27 24 21 20 24 31 40 40 35 32 29 29 38 45 45 44 47 51 52 52 54 53 54 60 59 43 33 31 30 30 29 26 26 24 22 20 16 13 10 8
23 24 25 25 25 25 26 28 30 28 26 29 29 30 31 22 22 30 36 41 42 43 41 40 43 34 45 79 91 90 93 89 90 93 88 83 77 70 61 49 33 25 27 27 23 19 14 17 21 25 27 30 36 33 26 30 33 36 45 55 61 64 69 76 79 76 72 69 71 80 83 64 46 42 38 35 33 30 29 29 28 27 24 21 16 12
24 25 26 26 26 26 28 29 29 27 27 29 27 27 24 19 25 33 38 42 44 45 39 37 42 34 46 84 95 92 95 92 95 95 85 77 69 60 51 39 28 21 17 14 11 9 12 20 25 33 38 39 42 40 36 35 34 34 36 38 43 50 62 76 88 93 90 89 93 98 99 86 68 60 54 47 41 35 32 30 29 28 28 26 23 19
25 27 27 27 28 28 28 29 28 27 26 27 27 24 21 26 33 35 40 45 43 42 38 37 42 35 46 79 88 85 88 89 92 89 80 73 63 55 50 41 28 16 12 12 11 15 26 37 45 52 59 62 64 64 63 59 51 44 37 34 34 37 50 70 85 96 99 100 101 99 102 99 84 73 68 63 55 46 41 37 32 29 28 27 25 23
25 27 28 28 31 29 27 27 26 27 26 26 27 23 25 36 41 39 42 44 40 39 35 35 43 38 40 65 79 84 89 91 88 79 71 66 57 49 41 30 16 9 17 25 29 39 51 58 63 64 65 66 69 71 71 72 70 65 57 50 46 41 47 65 83 94 98 102 103 98 98 98 89 83 81 75 65 58 53 47 42 38 34 28 25 24
25 28 29 30 32 29 28 27 26 28 28 29 28 24 30 40 42 43 44 45 43 40 36 38 46 40 39 60 78 87 92 89 83 77 69 61 50 38 24 12 7 14 32 45 52 62 66 66 67 66 66 68 73 75 73 71 73 74 73 70 67 62 53 49 67 89 93 95 100 98 98 98 96 94 91 83 75 69 65 58 52 46 38 30 26 25
26 28 29 31 32 30 29 28 28 29 29 30 31 35 43 49 54 56 50 47 44 40 41 43 42 39 46 65 76 84 92 86 77 68 58 49 37 21 10 7 16 37 54 62 66 69 66 65 70 73 75 78 80 80 75 72 74 75 76 76 75 79 72 50 52 81 95 95 99 100 99 100 100 100 97 93 88 83 78 72 62 50 39 32 29 28
29 29 30 32 32 32 30 29 31 32 32 35 41 53 58 59 74 78 62 53 50 46 44 41 42 42 45 63 76 84 90 82 68 52 37 33 23 10 9 19 38 61 71 70 69 70 70 72 79 81 80 81 82 79 77 75 75 74 75 78 75 80 85 64 41 50 72 89 99 100 100 101 100 101 101 101 98 94 88 78 66 53 42 34 29 26
32 32 30 32 34 35 33 32 35 36 38 42 46 57 60 62 80 84 66 61 62 54 43 40 47 44 46 69 80 81 82 69 52 37 24 19 11 6 18 39 62 76 75 72 71 76 82 84 86 83 77 79 79 76 79 79 77 76 74 75 76 77 82 74 45 25 32 58 80 90 96 99 99 100 99 98 97 94 91 84 74 59 42 29 22 19
32 32 31 33 36 37 35 34 35 36 42 47 48 55 57 59 68 69 63 64 61 49 39 40 44 43 56 72 69 73 77 54 32 24 17 11 7 13 34 57 74 78 74 74 75 82 89 88 90 86 76 77 79 77 80 80 78 80 78 75 77 77 78 79 67 41 21 23 39 54 68 77 83 85 85 86 88 86 84 78 66 47 29 19 16 13
34 32 31 35 37 36 37 37 35 39 45 50 56 55 49 52 61 62 60 55 50 46 40 40 44 44 52 61 68 80 69 36 20 19 12 7 8 26 52 66 71 71 73 78 82 86 87 85 88 88 82 81 82 80 79 79 79 80 81 79 77 78 80 82 80 70 51 35 29 30 36 42 48 52 57 63 66 64 60 57 51 44 40 39 33 23
36 33 31 35 38 36 38 38 38 43 46 52 61 52 44 55 62 62 64 57 53 55 47 44 52 50 44 56 76 74 45 22 18 14 8 6 13 38 61 67 67 71 78 83 86 88 88 85 86 86 85 85 83 80 78 77 79 79 79 80 79 79 81 83 84 86 85 79 71 65 62 61 62 63 66 70 72 74 76 78 81 82 83 80 71 57
37 37 34 35 38 37 38 40 43 49 49 52 56 46 45 59 59 61 74 70 63 68 60 51 54 49 49 70 77 52 28 23 16 9 7 8 22 50 65 65 68 75 81 83 84 85 84 83 84 83 83 83 82 81 79 77 78 78 79 80 81 82 83 85 87 89 92 95 95 94 95 95 95 95 94 95 97 99 100 101 100 100 99 98 94 86
37 42 40 36 37 39 40 43 48 54 55 55 56 51 51 57 58 68 80 72 69 77 71 61 56 48 57 79 67 33 21 20 12 9 8 10 35 63 66 66 74 80 84 84 80 79 78 78 81 82 80 79 80 80 80 80 79 79 80 82 84 85 86 87 88 89 90 92 94 96 97 99 100 101 101 101 102 102 103 104 103 101 99 97 96 93
37 42 42 37 38 42 44 44 47 52 56 59 60 58 57 58 61 70 74 72 75 75 69 73 71 55 60 71 51 24 17 13 11 12 6 16 49 67 66 71 79 82 85 84 79 76 76 78 78 80 80 79 80 80 80 81 80 79 82 83 83 83 84 85 87 89 90 92 94 95 96 98 99 100 99 98 99 100 101 102 103 103 102 98 94 91
39 42 43 39 39 42 43 45 49 52 55 57 54 52 54 55 59 67 71 74 79 75 75 89 87 67 62 58 36 20 14 8 10 10 6 27 57 66 68 77 82 81 81 81 81 78 76 77 76 77 79 79 79 80 81 82 82 82 83 82 81 82 84 86 88 90 92 94 96 96 96 97 96 97 98 98 99 100 100 100 100 101 103 103 98 90
41 43 44 41 41 43 46 49 52 53 54 51 46 46 49 50 58 72 75 75 81 83 82 86 83 67 56 46 29 17 10 7 9 7 11 37 60 63 69 79 81 80 80 80 80 78 77 78 78 78 78 78 79 80 82 83 83 84 82 80 81 84 86 89 90 92 94 95 96 96 98 98 98 98 99 99 100 100 100 101 100 100 101 103 101 92
39 42 43 43 42 44 48 49 51 52 52 48 43 45 49 51 61 73 74 78 89 88 78 77 76 57 37 33 29 16 7 8 7 5 20 46 58 61 70 79 79 78 81 81 78 76 77 79 80 79 77 78 81 81 83 83 83 83 81 80 83 87 88 90 92 93 94 96 98 99 100 100 99 99 99 100 100 100 100 100 100 101 100 101 101 93
38 40 43 45 45 47 49 48 49 51 52 50 47 48 51 55 62 68 76 86 89 83 80 81 70 42 21 24 26 13 6 9 4 6 30 52 57 60 71 77 76 78 81 79 75 74 78 81 82 82 81 82 83 83 82 81 80 80 80 81 85 88 89 90 91 93 94 96 99 100 100 100 100 100 100 100 100 100 100 100 100 100 100 100 101 95
40 41 43 46 47 50 51 49 48 51 54 52 50 51 51 54 59 68 81 85 77 80 91 81 54 28 13 13 15 8 7 8 3 9 33 52 56 61 70 74 74 78 80 76 74 75 79 83 85 86 85 85 85 83 78 78 79 79 80 83 85 86 88 89 90 93 94 96 99 100 100 100 100 100 100 100 100 100 100 100 100 100 100 100 102 100
41 41 43 45 46 48 48 46 46 51 54 53 51 50 49 53 61 69 79 78 76 89 88 57 38 31 15 8 11 8 7 7 4 12 33 48 53 59 68 72 73 78 80 76 74 77 82 84 86 87 87 86 86 82 77 76 76 76 78 82 84 85 86 88 89 91 92 94 97 98 99 100 100 100 100 100 100 100 100 100 100 100 101 100 100 101
42 43 44 45 45 45 45 45 47 51 54 53 49 47 47 55 63 68 74 75 82 92 68 27 23 33 18 10 12 8 7 7 4 15 36 47 52 58 65 68 71 76 80 76 73 76 80 83 85 87 86 85 84 80 76 75 73 73 77 81 85 87 87 88 90 91 93 94 95 95 97 99 100 100 100 100 100 100 100 100 100 100 100 100 100 100
44 44 46 46 44 44 45 45 48 51 53 49 44 45 50 57 64 68 73 72 69 63 41 18 21 26 14 10 11 8 9 6 4 22 46 52 52 56 61 64 67 72 76 75 73 74 78 82 84 85 83 83 82 76 74 74 70 70 76 80 84 87 87 87 90 92 95 96 96 97 97 97 99 100 100 100 100 101 100 100 100 100 100 100 100 100
45 44 47 48 45 44 46 47 49 51 50 44 42 47 54 59 64 69 71 66 50 32 21 18 20 17 10 8 9 7 8 5 7 26 48 53 50 50 56 61 66 69 73 75 74 72 76 80 83 83 82 82 80 74 71 71 69 68 73 78 82 85 85 86 90 94 97 98 99 100 100 100 99 99 100 100 101 101 101 101 100 100 101 100 101 102
46 46 48 49 47 46 48 48 50 49 45 42 45 51 56 60 66 70 68 59 41 25 20 18 14 10 8 8 7 7 7 5 7 20 39 48 48 47 50 57 64 68 70 73 74 71 74 78 81 82 82 81 79 74 70 70 69 69 71 75 80 84 85 86 89 95 98 100 101 101 101 101 101 98 98 100 102 101 101 101 101 100 100 100 101 101
46 47 48 50 50 49 49 50 50 47 43 43 48 52 56 62 67 67 65 52 33 24 22 16 11 9 7 7 7 6 6 5 6 15 32 42 45 46 48 52 59 63 64 68 71 70 72 76 79 80 80 80 79 73 69 69 70 71 70 71 75 82 84 85 89 94 97 99 102 102 101 101 102 100 98 99 101 101 100 100 100 100 100 100 100 101
47 47 48 52 54 51 51 53 50 45 44 45 49 52 57 63 65 63 61 49 32 25 24 17 11 9 7 6 7 6 6 5 6 16 32 42 45 48 52 54 55 59 61 64 67 70 71 73 76 79 80 81 80 74 68 66 68 70 69 66 69 75 80 82 86 90 95 98 100 102 102 101 101 102 100 99 100 100 100 101 100 100 100 100 100 100
47 47 48 53 55 53 52 53 50 47 49 49 49 53 57 62 63 61 58 48 33 28 25 17 11 9 7 6 6 6 6 5 7 18 34 45 48 51 57 58 56 57 59 61 64 68 70 71 75 79 83 83 82 78 72 67 66 67 66 66 68 70 74 78 83 87 91 95 98 99 99 98 99 99 100 100 100 99 100 102 102 101 100 100 100 101
47 48 49 52 55 54 52 54 54 52 51 49 50 54 57 59 60 59 54 44 35 31 27 18 12 9 7 6 6 6 6 5 8 16 30 44 51 53 59 60 55 54 57 60 63 65 68 71 73 77 83 85 84 82 77 71 67 65 65 68 71 71 72 75 80 83 86 91 95 96 95 95 95 96 98 100 101 101 101 102 102 101 101 101 100 100
48 49 50 53 55 55 54 57 59 55 50 49 51 55 57 56 58 60 53 42 36 36 29 19 13 10 7 6 6 6 5 5 7 12 25 42 51 54 57 58 54 53 55 58 61 62 64 68 71 73 79 83 85 85 81 76 71 65 63 67 71 72 73 74 76 79 81 85 89 93 95 94 92 93 94 95 98 101 100 99 100 101 101 102 101 100
49 50 52 54 56 56 56 58 57 54 51 50 51 55 56 54 57 61 56 44 40 39 31 21 16 11 7 6 6 6 5 5 6 9 20 38 50 53 55 57 55 54 55 57 61 63 64 67 71 73 77 82 86 86 83 81 78 73 68 69 71 72 73 73 74 76 77 80 86 92 94 93 90 89 89 89 91 94 95 94 95 98 99 100 101 101
50 51 54 57 56 56 57 59 59 58 54 51 52 56 55 53 57 61 56 47 44 42 33 25 19 13 8 6 5 6 5 5 6 9 17 33 47 52 54 57 57 56 55 56 59 63 64 65 69 73 76 81 85 87 86 84 81 79 77 75 74 73 73 74 74 73 75 80 86 89 88 88 90 88 87 87 86 85 88 89 89 95 97 96 100 104
51 53 56 57 57 56 58 60 62 61 55 52 55 58 55 53 57 60 56 52 50 45 35 27 21 14 9 6 5 6 5 4 5 7 11 23 37 46 52 56 57 56 56 56 59 62 63 64 66 70 75 79 84 88 89 86 81 80 81 80 79 76 73 73 73 73 77 82 86 87 85 85 88 88 88 90 85 80 83 84 85 94 97 92 96 102
51 54 57 58 57 57 59 61 60 57 54 55 58 58 55 54 56 59 60 58 53 46 37 30 23 17 11 7 5 5 5 5 5 5 6 13 26 40 50 54 55 56 55 55 57 60 63 64 64 67 72 77 81 85 87 85 82 79 79 79 80 79 74 70 70 74 81 84 85 88 89 88 87 86 87 90 87 82 82 83 84 94 98 91 92 98
52 56 58 57 57 59 62 63 61 56 56 59 59 57 56 57 56 59 63 61 55 47 39 33 27 20 13 8 5 5 5 5 5 5 5 8 17 32 46 52 55 56 55 54 55 57 62 65 65 65 68 72 76 80 84 85 82 79 79 79 77 77 75 72 71 74 79 82 83 88 92 92 89 85 85 90 90 86 86 85 86 94 97 91 91 96
54 57 57 56 59 63 65 64 61 57 58 60 58 56 59 59 57 58 61 61 57 49 42 35 29 23 16 9 6 5 5 5 5 5 5 6 12 24 38 47 52 54 54 53 53 54 59 64 67 67 68 71 75 78 81 84 82 80 81 79 76 75 75 74 75 75 76 78 82 87 91 94 91 86 85 90 91 90 89 87 88 94 95 91 93 98
54 57 57 56 60 65 66 62 59 58 61 61 57 57 59 59 57 57 59 60 59 52 44 38 32 25 19 12 8 6 5 5 5 5 5 5 8 17 28 39 48 52 52 52 52 53 54 59 65 68 68 71 74 76 78 82 83 83 83 82 79 78 77 76 75 76 76 77 81 86 91 94 91 85 84 89 90 88 87 85 86 91 92 89 92 97
52 56 58 57 62 67 66 64 64 65 66 64 59 58 60 59 58 57 57 60 60 54 47 40 34 29 22 16 10 7 6 5 5 5 5 4 5 11 20 31 42 48 50 51 52 52 52 55 60 65 69 71 72 74 76 78 81 84 86 86 83 80 80 80 78 77 79 80 82 86 90 93 91 84 80 85 88 86 83 84 86 87 90 91 92 90
51 56 58 58 62 63 60 66 73 73 70 69 64 60 60 61 61 58 57 60 61 57 50 43 37 32 26 19 13 9 6 6 5 4 5 5 4 6 12 22 33 43 48 50 51 52 52 52 55 59 66 71 73 73 74 74 77 82 86 88 86 83 81 82 81 81 81 83 84 86 90 95 96 89 81 80 84 84 82 84 86 85 87 91 90 84
50 54 56 57 59 56 52 64 77 76 74 74 69 63 62 63 63 61 58 59 61 59 53 47 41 35 29 23 16 11 8 6 5 4 5 5 5 5 7 13 23 34 41 47 50 51 51 51 53 56 61 66 71 75 75 73 75 79 84 86 88 87 84 82 83 85 85 85 86 88 90 97 102 99 90 83 83 85 84 83 84 85 86 89 85 81
50 52 53 52 54 52 50 63 77 77 77 77 72 68 66 64 64 64 61 59 61 61 57 51 44 38 33 26 19 13 10 8 6 5 5 5 5 5 5 7 12 20 30 38 45 48 49 50 52 54 56 59 64 70 74 76 76 77 79 82 85 88 88 86 87 89 87 86 89 91 94 98 102 103 99 91 87 90 90 88 89 91 90 86 81 81
51 51 49 45 43 42 46 59 71 74 76 78 76 73 71 67 66 67 64 60 61 62 60 55 48 42 36 30 23 17 13 10 7 6 5 5 5 5 5 5 6 11 18 27 36 43 47 48 49 51 53 55 58 61 67 73 77 77 76 76 80 86 89 90 92 94 90 86 89 93 96 99 102 103 102 99 95 95 94 93 93 93 90 84 81 83
50 50 47 40 34 32 39 52 63 65 69 78 81 78 75 72 69 68 68 65 62 62 63 59 53 46 40 34 27 21 16 12 9 6 5 5 5 5 5 5 5 6 9 16 24 32 39 44 47 49 51 52 54 56 60 66 72 76 77 75 75 79 84 89 94 96 93 88 89 92 93 97 101 102 102 103 102 100 99 97 97 96 93 90 88 89
42 42 40 35 29 29 34 44 54 59 63 73 82 82 79 76 73 72 71 69 65 63 64 63 58 51 44 38 32 25 20 15 10 8 6 5 5 5 5 5 5 5 6 8 13 21 30 39 43 46 49 51 53 54 56 59 64 70 75 77 76 75 78 83 89 94 94 90 89 89 90 92 96 99 100 101 102 102 101 101 100 100 100 98 95 93
35 35 33 30 27 27 29 34 44 51 53 59 72 81 82 79 77 76 75 73 70 66 65 64 63 57 49 42 37 30 24 18 13 10 7 6 5 5 5 5 5 5 5 6 8 11 19 28 37 44 49 52 54 54 55 56 57 61 66 72 76 77 77 78 81 86 90 90 89 90 91 91 93 95 97 97 98 99 101 101 101 102 102 99 95 92
Wind_Speed
25 28 32 34 33 33 33 33 34 32 32 36 35 36 38 32 32 41 45 47 45 40 34 27 29 29 19 22 30 31 30 28 22 17 16 20 24 26 25 23 21 18 16 16 21 26 31 35 39 43 46 49 51 52 53 53 54 54 54 55 57 58 59 59 58 58 58 58 57 58 59 58 57 57 56 57 57 57 57 55 53 51 50 49 49 50
26 31 33 31 30 30 31 33 35 35 36 39 36 37 39 33 37 43 43 47 42 34 30 27 30 26 16 21 28 27 28 28 24 18 15 19 23 25 22 20 17 16 19 24 30 36 40 43 46 49 51 54 57 59 61 62 62 62 62 63 64 64 65 65 64 64 64 64 64 64 64 64 63 62 62 61 61 61 61 60 58 56 55 54 53 53
28 31 31 29 29 29 31 33 35 35 38 38 35 36 38 38 45 47 44 44 36 29 28 29 30 20 13 22 25 21 22 23 21 17 17 19 23 24 19 16 16 21 29 34 38 43 46 50 53 55 56 58 60 62 64 66 67 67 67 67 67 67 67 67 66 66 66 66 65 64 64 64 64 63 63 63 63 63 62 61 60 58 57 56 55 55
28 28 28 27 27 28 31 35 34 36 39 36 34 37 38 40 44 45 45 43 34 27 27 30 25 13 14 24 22 17 19 18 16 16 16 18 21 21 17 18 23 30 37 41 45 50 54 58 60 61 63 63 63 63 64 65 66 66 67 65 64 63 63 62 61 60 60 60 60 59 57 57 58 58 57 58 58 59 59 59 59 58 57 56 56 55
26 23 26 26 26 29 32 36 36 38 41 33 32 38 38 43 44 39 38 39 34 22 21 28 21 12 16 19 17 16 16 15 14 14 14 17 19 19 19 24 31 39 46 50 55 59 62 64 65 66 66 64 62 61 60 60 61 61 61 60 59 58 57 55 53 52 51 52 53 52 50 48 48 48 48 49 50 51 52 54 54 54 54 54 54 54
23 22 26 26 27 30 33 36 37 40 41 30 32 40 38 42 46 39 33 32 26 17 19 24 18 16 16 12 14 15 12 13 14 13 13 15 18 20 26 33 41 50 56 60 62 63 66 66 66 65 62 59 57 55 55 55 55 55 54 54 53 52 51 50 49 47 46 46 47 46 44 41 38 38 38 39 41 43 45 47 49 50 50 50 50 50
22 23 26 26 27 32 35 37 37 41 41 31 34 41 40 44 44 35 28 22 19 18 19 17 16 21 18 10 12 13 11 13 12 12 13 16 22 28 36 44 53 61 62 64 64 65 66 65 63 60 56 53 52 51 51 51 51 49 47 46 45 44 44 44 44 43 43 43 44 44 44 41 36 35 35 36 38 38 39 41 42 44 46 47 48 48
19 22 25 27 28 34 38 38 37 40 39 35 38 41 41 45 40 28 22 19 19 18 15 16 23 27 16 8 9 10 10 12 13 17 21 25 33 40 48 55 61 64 63 64 66 66 65 60 55 52 50 49 48 49 48 47 47 44 42 41 40 40 39 39 39 39 40 40 40 41 44 44 42 41 41 40 40 40 39 39 39 41 42 44 45 46
18 22 26 28 29 35 38 35 37 38 37 38 40 41 42 42 36 23 19 19 18 14 14 21 28 25 11 3 4 7 11 16 19 24 31 37 44 51 57 61 62 63 64 65 64 60 54 49 46 46 46 45 45 46 45 44 44 43 43 42 41 40 39 38 37 37 38 38 36 38 42 45 45 46 46 46 46 45 44 43 42 42 42 43 43 45
17 22 27 28 29 34 35 33 35 35 38 39 38 44 43 36 32 22 18 21 15 10 16 26 30 21 8 2 3 10 17 22 25 31 40 46 52 57 59 61 65 66 64 58 52 47 43 42 44 45 45 46 47 47 47 46 45 45 44 44 43 41 38 37 37 37 37 37 37 38 40 42 46 48 49 50 50 49 48 48 47 46 45 44 43 43
18 22 27 28 27 33 34 32 34 34 37 39 41 50 43 30 27 18 17 22 11 7 19 29 30 21 11 5 7 13 17 21 29 38 46 51 56 60 62 65 66 61 52 45 43 42 43 45 46 47 48 48 49 50 49 47 46 46 45 44 44 42 40 38 37 37 38 38 39 40 40 44 48 50 50 52 52 52 52 52 51 51 49 47 44 43
19 20 27 28 27 35 36 33 34 34 38 41 45 53 43 30 25 14 15 18 5 8 24 28 26 19 10 7 10 14 17 25 35 42 49 55 59 63 66 65 57 48 43 42 45 46 46 48 49 50 51 50 50 50 50 48 46 46 45 44 43 42 41 40 39 39 39 40 42 43 44 47 50 51 52 54 55 55 56 56 54 53 52 49 45 43
19 18 26 29 29 37 37 35 36 36 41 43 45 47 34 22 18 10 12 14 6 13 24 26 23 15 9 9 15 17 20 30 39 46 55 58 62 66 64 57 48 44 44 45 46 47 49 51 51 53 52 49 49 49 49 48 45 43 43 42 42 40 40 40 39 39 40 41 42 44 46 48 50 52 54 55 57 58 59 59 58 55 52 50 46 44
20 17 26 30 29 34 35 33 35 35 37 38 39 34 19 10 10 8 11 11 11 17 24 25 18 12 15 14 16 18 22 33 44 53 61 61 63 63 55 49 46 44 45 46 48 50 52 53 52 53 51 48 47 47 47 45 43 41 40 39 39 37 36 38 39 39 40 41 42 44 46 48 50 52 54 57 59 61 62 62 60 58 55 52 48 45
20 12 23 28 26 31 31 28 30 29 27 31 34 25 15 9 5 6 9 10 15 21 24 21 14 16 22 14 13 18 25 39 50 58 63 63 62 57 48 46 46 45 48 50 51 53 53 52 51 50 47 44 45 44 43 42 40 39 38 37 36 36 36 39 40 39 39 41 43 45 47 49 52 54 57 59 60 62 63 63 62 60 59 56 52 48
22 12 19 26 25 29 27 24 29 27 20 26 30 26 21 13 6 11 13 13 18 19 16 15 15 23 21 13 16 21 28 44 56 61 64 62 57 50 46 46 45 47 51 53 53 52 50 49 48 48 47 44 43 43 41 39 38 38 37 36 35 35 36 38 39 38 37 39 42 44 47 50 52 55 57 59 60 61 62 63 63 62 60 56 52 48
23 14 16 24 26 27 22 22 27 24 21 26 26 26 26 12 8 18 18 16 16 11 9 15 20 25 20 13 18 23 34 52 60 62 63 60 53 47 46 47 47 50 53 53 53 49 47 45 44 46 47 45 44 43 40 38 36 35 35 35 34 34 34 36 37 37 35 36 38 40 43 45 48 52 54 56 58 59 59 60 59 57 55 52 49 45
24 16 16 24 27 24 19 20 24 22 25 28 23 26 27 10 8 18 14 14 15 8 8 15 20 23 19 15 21 32 47 60 61 63 63 57 52 48 48 49 51 53 53 52 50 47 46 45 43 43 44 43 42 40 37 35 33 31 31 32 32 32 32 33 35 34 33 34 35 36 37 39 41 44 46 48 50 51 51 50 50 49 48 47 45 43
26 17 16 26 27 21 17 17 19 20 26 31 25 29 28 10 11 19 10 8 14 10 9 14 18 19 16 17 27 41 55 61 62 64 61 56 52 49 50 52 54 54 52 49 45 43 43 42 41 40 39 37 37 36 35 33 31 30 29 29 29 29 29 29 29 29 28 28 30 31 31 32 32 34 35 36 37 38 39 39 39 40 40 41 41 39
27 14 13 27 27 17 15 15 14 16 24 32 29 30 29 17 13 14 4 6 13 10 10 16 16 14 15 19 29 45 57 60 62 64 59 54 50 49 51 54 54 53 49 46 43 41 41 40 39 38 36 36 35 34 33 31 30 29 28 27 26 25 25 25 24 23 23 23 23 24 25 26 26 27 28 28 28 29 30 31 32 32 33 34 36 36
28 15 16 31 27 13 13 16 14 13 20 29 30 30 31 28 22 10 1 6 12 9 11 12 12 16 21 20 29 49 59 58 61 62 57 51 48 49 52 53 52 49 46 45 44 42 41 38 37 35 35 36 35 34 33 31 30 29 28 27 25 23 23 22 21 21 21 22 22 23 24 25 25 26 26 26 26 26 25 25 25 26 27 29 30 31
27 17 22 34 27 14 14 16 14 12 19 28 31 30 31 31 28 14 3 10 17 14 11 8 11 22 22 19 34 53 57 57 61 59 53 49 48 50 51 51 49 46 43 43 42 41 40 38 37 36 34 34 33 33 32 31 30 28 26 24 23 22 22 21 21 21 21 22 22 23 24 25 25 26 26 26 26 25 24 24 23 22 22 23 24 25
27 19 26 33 23 14 14 14 13 15 23 31 31 30 30 29 26 14 8 18 23 18 14 13 13 16 16 25 44 55 55 57 58 54 50 48 48 50 51 49 46 43 42 42 40 39 38 37 36 35 34 33 33 32 32 31 30 27 24 22 21 21 21 21 21 21 22 22 22 24 25 25 26 26 26 25 25 24 24 23 23 22 20 19 18 19
26 22 31 33 21 15 16 17 18 20 28 35 32 29 28 27 25 16 14 21 19 13 16 15 10 11 23 38 48 53 55 57 54 50 47 46 48 50 50 47 44 42 41 40 38 37 36 36 35 34 34 33 33 32 31 30 27 24 23 21 20 20 21 21 21 21 22 22 23 25 26 26 27 27 27 27 26 26 24 23 22 21 20 18 16 15
23 22 29 26 16 13 15 17 20 23 30 33 30 27 26 25 25 20 19 21 14 10 16 14 11 22 39 45 47 53 57 56 52 47 43 44 48 50 48 46 43 41 41 40 38 37 35 35 35 34 34 33 32 32 30 27 25 23 22 20 20 21 21 21 21 21 22 24 25 26 27 28 28 28 29 28 28 28 26 24 23 21 20 18 15 13
23 24 26 19 10 8 10 13 18 24 29 29 27 25 24 24 23 22 20 18 14 16 18 14 20 40 52 50 51 56 57 56 53 46 42 45 47 48 48 44 42 42 41 40 37 36 35 35 35 35 34 33 32 30 27 25 23 22 20 20 20 21 21 21 21 22 23 24 26 27 28 28 29 28 29 29 30 30 29 28 26 24 22 20 17 14
24 25 26 22 17 15 16 18 20 23 25 26 25 23 22 22 22 23 23 21 22 22 19 17 29 46 53 54 55 58 57 55 52 46 44 45 46 47 46 42 42 42 41 39 36 35 34 34 35 34 33 32 30 28 26 23 22 20 19 19 20 21 20 21 21 21 22 24 25 27 28 28 28 29 29 30 31 31 31 30 29 27 25 23 21 18
25 25 27 28 27 23 21 20 20 21 22 23 21 19 20 20 21 25 27 28 28 20 19 29 38 42 48 53 54 56 56 54 49 45 44 45 45 46 44 41 42 41 40 38 36 35 35 34 34 34 32 30 28 25 23 21 20 19 18 19 20 20 20 20 21 21 21 22 23 25 26 27 27 28 28 30 31 32 32 31 30 28 28 27 25 24
24 26 28 31 30 23 19 20 22 23 22 20 18 17 19 19 22 27 30 33 31 21 25 40 43 41 48 52 51 53 53 50 46 42 41 43 45 45 44 42 41 40 39 38 36 36 35 34 34 33 31 29 26 23 20 19 18 17 17 19 20 20 21 20 21 21 21 21 22 23 23 24 25 26 27 27 28 29 29 29 29 29 29 29 29 28
25 27 29 32 31 23 19 24 27 26 22 17 14 15 17 19 23 29 34 37 33 27 31 40 41 42 48 51 50 51 51 48 43 38 39 42 44 45 44 43 41 40 39 37 36 35 34 33 33 32 31 29 26 23 20 18 17 16 16 18 20 20 20 20 21 21 21 21 21 22 23 23 23 24 24 25 25 25 25 26 26 26 26 27 28 28
27 28 29 32 33 27 24 29 31 25 19 13 11 15 18 20 25 32 38 38 32 29 35 41 44 47 48 48 50 50 49 47 42 38 39 41 43 45 44 43 42 39 37 37 35 34 33 32 31 30 30 28 26 23 21 18 17 16 16 18 19 19 20 20 21 21 21 21 21 21 22 22 22 22 22 24 24 24 23 23 23 23 23 23 24 24
27 29 30 31 32 29 29 33 32 23 12 8 11 18 20 22 29 35 40 37 29 30 38 42 45 48 48 48 49 49 49 48 43 40 39 39 41 44 44 44 42 38 36 36 35 34 32 30 30 29 29 27 26 24 22 19 17 16 16 17 18 19 20 20 21 21 21 21 21 21 21 21 21 21 21 22 23 24 24 23 23 23 23 23 22 22
27 29 31 28 27 29 32 35 29 15 5 5 15 21 21 25 33 39 41 36 25 26 36 41 43 46 48 48 49 50 50 47 44 41 39 38 40 42 43 45 43 39 36 35 35 34 32 30 29 29 28 27 25 24 23 21 19 17 17 18 19 19 20 20 21 21 20 20 20 20 20 20 20 20 19 20 22 23 23 23 24 25 25 25 23 22
27 29 29 26 26 28 34 36 21 4 2 11 19 21 23 29 37 41 41 34 24 28 39 43 44 46 46 46 48 49 49 45 42 40 37 38 40 41 42 44 44 42 37 34 35 34 32 30 28 27 28 26 25 23 22 21 20 19 19 19 19 19 19 20 21 21 21 20 20 20 20 19 19 19 19 19 19 21 22 23 24 25 27 27 25 22
28 29 27 27 27 27 36 36 15 1 11 18 18 20 27 35 41 43 44 35 27 35 45 44 44 45 45 45 45 46 47 44 39 37 36 37 39 40 41 42 43 43 39 34 33 33 32 30 28 27 27 26 25 23 21 20 19 19 20 19 19 19 19 20 20 21 21 20 20 21 20 19 18 19 18 18 18 19 21 22 24 25 27 27 25 23
29 28 27 28 25 23 30 26 11 10 18 16 14 21 31 39 42 45 47 37 30 39 46 43 44 46 45 45 44 44 45 43 39 37 36 35 37 39 40 41 42 42 40 36 33 32 32 31 29 27 26 26 25 24 21 20 19 19 19 20 19 19 19 19 19 19 20 20 20 20 21 20 18 18 18 18 17 18 19 21 23 25 26 26 26 24
28 27 26 25 22 22 25 23 18 18 15 12 18 27 35 40 40 42 43 35 31 41 45 43 44 45 44 45 45 45 46 43 40 40 38 35 35 36 38 40 41 41 40 37 32 30 31 30 29 28 26 26 25 24 23 21 19 19 19 19 19 19 19 19 18 18 19 19 19 19 20 20 19 18 18 17 17 17 17 19 21 23 23 25 26 24
27 26 24 22 21 23 24 20 16 12 9 14 24 32 38 41 39 39 38 32 35 43 44 42 44 43 43 44 44 46 47 45 42 39 38 36 34 35 36 38 39 40 40 38 33 30 29 29 29 27 26 25 25 24 24 22 20 20 19 18 18 19 18 18 18 17 18 18 18 19 19 20 20 19 18 17 17 16 15 17 20 21 21 23 25 25
27 25 23 21 21 23 20 13 8 6 9 19 28 34 39 40 40 40 32 28 38 45 43 42 43 41 41 42 42 44 47 48 45 40 36 35 34 34 35 36 37 38 39 38 35 31 29 28 28 27 26 25 24 23 23 23 22 20 19 18 18 17 18 18 17 17 17 17 18 19 19 20 20 19 19 18 18 16 15 16 18 19 19 21 23 24
27 25 24 22 22 24 19 14 11 11 13 20 29 36 39 39 39 31 19 24 40 44 39 41 42 40 40 40 40 42 43 46 46 42 38 35 33 33 34 34 36 37 37 38 37 33 30 28 27 27 26 24 23 23 23 23 22 21 20 19 18 17 17 17 17 17 17 17 19 20 21 22 21 20 19 19 19 18 16 15 16 17 17 20 22 24
26 25 23 22 24 24 19 17 19 18 17 22 32 37 38 36 33 23 19 30 41 40 38 40 40 39 39 37 38 39 39 41 43 41 39 37 33 31 32 32 34 35 36 37 37 35 33 30 27 27 26 25 25 23 23 23 22 21 20 20 18 17 17 16 17 17 17 17 19 20 22 23 23 21 20 19 20 19 16 15 15 15 17 19 21 24
26 24 24 24 24 23 21 21 21 18 20 29 36 36 35 33 30 28 31 36 38 36 39 39 38 38 38 35 36 37 36 38 41 40 40 38 35 32 30 30 32 33 34 36 36 36 35 32 29 27 25 25 25 24 23 22 22 21 21 20 19 18 16 16 16 16 16 17 18 20 21 23 23 22 20 19 19 17 15 15 16 16 18 21 22 25
25 24 25 26 24 22 22 19 14 15 26 36 36 34 33 32 32 34 36 35 34 36 38 37 37 38 37 35 35 35 35 37 38 38 39 38 36 33 30 29 30 31 32 34 35 36 36 34 33 30 27 25 24 24 23 22 21 21 21 20 19 18 17 16 15 15 16 16 17 19 21 22 23 22 20 19 18 16 15 15 16 17 19 21 23 25
25 24 25 27 24 21 20 17 16 23 33 35 32 32 33 33 33 35 35 35 36 36 36 37 37 37 36 36 35 34 35 35 36 37 38 37 36 34 31 29 29 29 31 32 33 34 35 35 35 33 31 28 25 24 23 22 20 20 20 20 20 18 18 17 16 16 16 17 18 19 20 21 22 21 19 17 16 15 15 16 16 17 18 20 22 24
26 27 27 28 27 25 24 24 26 30 32 32 32 32 32 32 33 34 34 35 36 36 36 37 37 36 36 35 34 34 34 34 34 36 36 36 36 35 33 31 29 28 29 30 31 32 33 34 35 34 33 31 28 25 24 22 21 20 19 19 19 18 18 17 17 18 17 17 18 19 19 20 20 19 18 16 14 14 14 15 16 16 17 18 20 22
28 29 29 30 32 32 30 29 30 32 31 31 32 32 31 32 33 34 34 35 35 36 36 36 36 36 36 34 34 34 33 33 33 34 34 35 35 35 34 32 30 28 28 28 29 30 30 32 33 33 33 33 30 28 25 23 22 21 19 19 18 18 18 17 17 19 19 18 18 18 18 18 18 18 18 16 14 15 15 16 17 17 17 17 19 21
28 29 30 33 33 34 34 32 32 33 31 30 31 32 31 32 33 33 35 35 35 35 36 36 36 36 35 34 33 33 33 33 32 32 33 33 33 33 34 33 31 30 29 28 28 28 29 29 30 31 32 33 32 31 28 25 23 22 21 19 18 18 18 18 18 18 18 18 18 18 17 16 15 17 18 16 14 15 16 18 18 18 18 17 18 20
28 29 31 33 34 34 35 35 34 34 32 30 31 32 31 32 33 33 34 35 35 35 35 35 35 35 35 34 33 32 32 32 31 31 32 32 32 32 33 33 33 32 30 30 29 28 28 28 29 29 31 32 33 33 32 29 26 23 21 21 19 18 18 18 18 18 18 17 17 17 17 15 14 15 17 18 17 17 17 18 18 18 18 18 19 22
27 28 30 33 35 35 36 35 36 36 34 31 31 32 31 32 33 33 33 34 35 35 35 35 35 35 35 34 32 32 32 31 31 31 31 30 31 31 32 32 33 32 31 31 30 29 28 28 28 29 29 30 31 33 33 32 30 26 22 21 20 19 18 18 18 18 18 17 16 17 17 16 15 15 16 18 20 21 22 21 18 17 17 19 21 24
26 27 29 32 34 35 35 35 35 36 35 33 32 32 31 31 32 33 33 34 35 35 35 36 35 35 35 34 33 32 31 31 30 30 30 30 30 30 31 31 32 32 32 31 31 30 29 28 28 28 28 29 30 31 32 32 32 30 26 23 21 19 18 17 18 18 18 17 16 16 16 16 15 15 15 15 17 19 21 22 22 20 20 21 22 24
26 27 28 29 32 34 34 34 34 34 35 35 33 32 31 32 32 33 33 34 34 35 35 35 35 35 35 34 33 32 31 30 30 29 29 30 29 29 30 31 31 31 32 31 31 30 29 28 28 27 27 27 28 29 30 31 32 32 30 27 25 22 20 19 18 17 17 17 16 16 16 15 15 15 15 16 16 15 15 18 21 23 24 24 25 25
Wind_Direction
3 0 10 14 9 5 3 1 358 355 352 352 351 347 346 345 340 340 344 346 344 340 346 350 347 350 343 341 347 345 345 345 335 315 282 261 251 245 243 243 246 255 270 290 305 312 313 312 312 312 311 310 309 308 307 305 304 303 303 302 303 303 303 302 301 299 297 296 294 292 292 290 289 287 285 284 282 282 282 283 284 284 284 283 283 282
2 10 18 13 6 3 360 357 353 351 352 353 351 347 348 346 339 341 344 344 343 341 345 351 347 343 334 340 343 341 343 340 332 317 288 267 252 245 243 247 260 280 298 310 314 315 314 313 312 311 310 310 310 310 309 309 307 306 305 304 303 303 303 302 301 300 298 296 294 293 293 292 291 290 288 287 285 283 283 283 283 284 284 284 284 283
10 17 16 6 3 0 356 353 349 349 351 353 354 352 350 346 341 341 342 343 346 345 347 351 344 331 322 341 341 336 340 334 327 319 295 272 254 245 246 262 287 307 315 316 315 314 313 313 312 311 309 309 308 307 307 308 309 309 309 308 308 307 306 305 303 302 300 298 297 297 296 296 296 294 293 290 287 285 284 283 283 284 284 283 283 283
18 18 9 3 2 357 353 350 349 350 353 355 357 355 348 345 344 339 337 344 349 347 348 351 345 323 322 341 343 336 337 335 329 317 293 272 257 249 261 292 307 314 316 316 315 316 316 315 314 313 311 310 308 306 305 306 307 308 309 311 312 311 310 308 307 306 305 303 302 301 300 299 298 296 295 293 290 288 286 285 284 284 283 282 282 282
22 16 4 4 359 355 353 351 352 353 357 359 355 354 347 342 343 338 338 346 348 345 347 349 349 344 341 343 345 342 338 340 335 315 288 273 267 266 287 306 313 316 318 318 318 318 319 319 317 316 315 314 312 311 310 309 308 308 309 311 312 311 311 310 309 309 309 308 306 305 303 301 299 297 295 293 291 289 287 285 284 283 282 280 280 279
19 12 5 3 356 354 353 353 356 356 359 360 349 349 345 339 340 342 345 347 346 345 342 349 354 346 352 0 353 351 345 344 340 320 300 289 289 298 310 316 320 324 325 325 324 323 323 321 318 316 315 315 314 313 311 311 311 311 311 311 311 310 309 307 307 307 308 309 308 307 305 302 298 293 289 286 285 284 284 283 282 280 278 276 275 274
14 10 4 1 357 356 357 359 360 356 356 355 346 345 342 339 341 343 348 347 342 339 335 356 1 333 341 8 355 357 355 348 346 337 333 324 321 324 324 326 328 329 329 327 326 324 321 318 316 316 315 314 313 311 310 310 310 311 311 311 311 310 308 305 303 303 304 304 304 304 303 300 296 290 286 283 280 279 280 281 281 281 279 275 272 268
13 9 3 2 0 359 2 3 359 354 353 350 346 344 339 340 343 345 354 348 336 336 335 356 351 330 334 16 3 15 19 3 358 349 343 335 332 333 331 330 329 327 325 322 320 318 316 316 316 316 315 314 311 310 310 309 310 311 311 310 309 309 307 305 302 299 298 298 297 297 296 296 295 293 291 289 286 283 281 280 280 281 281 278 274 269
12 8 6 5 2 2 4 2 355 352 351 349 345 341 339 344 350 352 356 348 335 341 345 349 347 335 335 38 28 22 7 356 354 345 340 337 336 336 333 329 326 323 320 317 316 315 317 318 318 317 316 315 314 312 312 312 310 309 308 307 306 305 303 301 298 294 293 292 289 289 290 290 291 292 293 293 292 290 288 285 282 280 280 279 277 273
15 11 8 5 3 2 2 359 355 352 350 348 343 342 345 351 357 356 357 354 344 345 349 348 348 340 333 49 22 347 341 341 343 341 341 340 338 336 332 329 326 323 320 319 319 321 323 322 321 321 321 320 318 315 314 312 309 307 306 305 305 304 302 299 295 291 287 285 283 283 283 282 284 288 290 292 292 292 291 290 287 285 282 278 276 274
18 14 8 5 3 359 359 358 355 352 351 350 347 349 353 358 0 358 354 355 353 349 350 347 345 337 332 357 340 329 332 335 338 340 342 340 336 334 330 327 325 324 324 325 328 330 330 328 326 323 321 318 316 313 310 308 307 306 305 305 305 305 302 298 294 290 284 280 278 278 276 277 281 284 285 287 289 290 291 290 289 289 286 281 276 273
17 13 8 6 0 356 358 357 354 354 355 355 354 356 358 356 356 357 348 354 8 343 344 344 342 337 332 333 324 323 327 335 341 343 342 339 336 332 327 326 328 331 333 334 335 334 332 329 325 322 319 317 315 311 308 307 306 306 305 305 305 304 302 298 292 288 283 280 277 275 275 275 278 280 281 283 285 287 289 289 290 289 286 282 277 273
16 12 9 6 358 356 357 354 355 357 356 357 359 1 2 352 348 353 346 347 334 326 337 343 342 339 341 327 316 319 327 337 343 342 340 337 333 329 327 331 336 339 339 338 336 333 330 327 325 322 320 318 316 312 310 310 309 307 305 304 304 304 302 298 291 284 281 280 277 275 275 274 275 277 279 282 283 285 287 289 289 288 286 283 278 274
16 9 6 4 357 354 355 354 356 356 355 358 2 4 5 349 341 345 341 335 319 318 332 346 350 340 339 324 304 313 332 342 342 338 336 333 331 330 333 338 341 340 339 338 336 333 330 329 327 324 322 321 317 315 315 315 313 310 307 304 304 302 299 295 293 287 280 277 275 274 274 274 275 276 278 280 282 284 286 287 288 289 288 285 281 276
12 2 357 359 355 350 351 355 356 355 354 357 3 5 357 351 347 319 318 315 311 312 325 345 357 343 336 313 289 315 337 342 338 334 333 331 332 336 339 342 343 341 339 337 336 335 333 331 329 326 325 325 321 320 321 320 317 315 311 307 304 300 296 295 298 297 289 281 277 274 274 274 275 276 278 280 282 284 285 286 288 289 289 288 284 279
7 360 353 355 352 348 349 352 353 357 358 353 1 6 356 350 338 315 301 289 300 307 324 344 343 340 336 303 296 317 330 335 334 333 333 333 336 340 343 344 344 341 338 336 336 336 334 333 332 329 329 330 328 327 327 325 321 318 314 310 306 302 299 298 300 301 297 290 285 281 280 279 279 280 281 282 283 284 285 286 287 288 288 287 284 281
1 355 357 357 352 349 349 348 351 358 1 355 0 5 358 350 342 339 322 311 320 315 329 337 329 335 340 315 303 313 326 332 334 334 335 337 341 344 344 344 343 340 338 338 338 338 337 336 336 333 333 333 333 332 332 329 326 322 317 314 310 306 303 301 302 304 303 299 295 292 289 286 285 285 285 285 285 285 286 286 286 286 285 284 282 279
355 350 359 359 353 349 346 344 347 352 359 3 4 3 3 356 346 355 337 325 341 327 318 332 327 332 339 320 310 322 332 335 335 336 338 341 344 345 344 343 342 341 340 340 340 341 340 339 339 337 335 335 335 336 336 334 332 328 323 319 316 314 310 307 308 310 309 305 301 299 297 294 291 289 288 287 286 286 286 285 284 283 281 280 278 276
356 349 353 358 354 347 345 346 344 344 355 3 3 5 13 14 336 349 351 337 342 327 316 327 325 329 329 316 322 334 337 336 336 339 342 343 345 345 344 343 342 341 342 343 343 343 342 341 341 340 338 339 339 340 341 341 340 337 334 331 327 324 322 320 319 319 317 312 309 308 306 303 300 297 296 294 293 291 290 288 286 283 280 278 276 274
359 349 339 351 353 346 347 351 343 337 349 357 1 6 14 17 348 342 7 8 341 319 317 321 319 328 325 316 326 336 337 336 339 342 344 344 345 345 344 343 343 343 344 345 345 347 347 345 344 343 343 345 345 345 346 346 345 344 343 342 339 337 336 336 336 335 333 329 325 323 321 319 316 313 311 309 306 303 300 296 292 288 284 279 275 272
359 350 332 346 356 359 348 346 339 333 345 354 359 4 5 5 2 352 154 14 350 319 316 320 309 313 315 311 325 335 338 339 342 343 343 344 345 345 344 344 344 346 346 347 348 349 349 347 347 348 348 348 348 348 347 347 347 346 347 348 349 349 350 352 351 349 347 344 340 338 336 332 329 326 324 322 320 317 313 309 303 297 291 285 278 272
356 348 336 345 354 351 337 341 338 330 342 350 355 1 1 359 2 1 320 342 340 318 298 281 289 305 307 311 328 336 340 342 344 343 342 344 345 344 345 345 346 347 349 351 350 349 349 349 350 351 350 350 349 348 347 347 347 348 351 354 356 358 0 2 1 359 357 354 351 349 347 345 342 339 336 333 329 327 324 322 318 311 303 294 286 276
354 349 343 345 347 338 335 348 347 336 342 347 351 357 356 354 358 359 329 325 326 317 300 282 285 303 314 325 332 338 343 345 346 344 342 344 345 345 346 347 348 350 352 352 351 350 350 351 352 352 352 352 350 349 348 348 349 352 357 1 4 6 9 9 7 6 5 4 3 2 1 358 356 352 349 346 342 340 336 333 330 325 319 310 298 285
356 351 346 347 347 340 339 347 349 344 341 341 345 349 348 349 349 343 328 323 314 304 311 307 283 295 324 332 335 340 346 347 347 345 343 344 345 345 346 348 349 351 353 353 352 352 352 352 353 354 354 353 352 351 350 351 354 357 1 7 12 15 16 14 13 13 14 15 14 12 10 7 5 3 2 0 358 355 350 346 342 338 335 329 317 301
358 352 350 353 352 345 342 344 345 340 333 330 335 339 340 343 341 335 333 328 308 293 313 311 282 307 330 338 339 343 347 347 347 345 343 344 345 346 348 349 351 353 354 355 354 354 354 353 355 356 356 356 354 352 353 355 358 1 5 14 20 21 20 20 20 21 22 22 20 18 16 12 11 10 10 10 9 8 5 3 0 356 352 349 341 327
354 352 356 0 356 340 325 319 324 322 318 320 327 330 334 337 335 334 337 328 313 307 305 297 299 319 337 346 343 346 349 347 346 345 344 346 347 347 348 349 352 354 355 355 354 355 355 356 358 359 358 358 356 354 356 359 2 5 11 19 23 23 24 24 25 26 26 27 25 23 21 18 15 15 15 16 16 15 15 14 15 14 11 10 8 360
354 352 354 351 344 332 314 310 317 314 310 315 322 325 331 332 328 334 338 329 323 312 297 310 319 323 338 346 344 348 349 346 346 345 344 347 348 348 349 350 354 356 355 354 354 356 357 357 359 0 0 1 358 355 358 2 6 12 18 22 22 22 23 23 24 25 25 26 25 24 23 21 19 18 18 18 18 19 19 20 22 24 24 25 26 25
353 350 349 346 345 341 327 323 328 321 313 314 320 326 331 327 326 334 337 336 335 316 303 332 335 326 334 343 344 346 347 346 345 343 344 347 347 348 350 352 356 357 353 352 354 357 358 359 360 1 2 3 1 359 1 4 9 16 20 21 20 20 20 20 21 21 22 23 23 23 23 21 20 19 19 19 20 21 21 23 25 29 31 33 35 36
352 349 346 344 348 349 334 332 337 330 321 318 321 328 329 326 328 333 336 339 340 327 323 336 337 331 336 343 344 345 346 346 345 343 343 345 346 349 352 354 356 355 352 353 355 357 359 359 359 1 3 5 4 3 5 7 11 16 16 17 19 18 17 17 18 18 18 18 19 19 20 19 18 18 17 18 19 20 22 25 28 31 33 34 35 36
351 347 345 343 348 354 344 340 344 336 325 318 317 324 327 329 332 333 338 343 340 333 336 338 335 336 341 343 344 346 346 346 345 343 343 344 347 350 354 356 356 353 352 354 354 357 359 358 358 0 2 5 6 6 7 8 11 14 13 14 16 15 13 13 13 14 14 14 14 15 15 14 15 15 15 15 17 19 21 24 27 30 31 32 32 32
348 345 345 341 343 353 353 346 343 334 322 310 310 326 331 332 334 336 341 344 339 338 344 344 340 341 344 344 345 347 348 347 345 345 345 345 347 351 355 357 355 351 351 353 354 358 359 358 358 360 2 4 5 6 7 6 7 9 7 9 12 9 7 7 9 10 10 9 10 12 11 9 9 10 13 15 15 15 17 19 21 22 24 25 26 27
348 344 344 341 339 345 351 347 341 333 319 301 320 337 338 334 335 338 342 344 342 342 346 345 343 343 344 345 345 348 350 348 345 346 346 345 347 351 356 356 354 351 351 352 355 357 358 358 358 359 2 3 3 4 5 4 4 4 3 6 8 4 1 3 5 6 5 4 5 6 6 6 6 7 12 14 13 12 13 13 13 13 14 14 14 15
349 344 344 342 335 336 346 348 341 325 301 318 335 340 338 336 338 340 342 344 343 344 345 344 343 344 344 345 346 348 351 350 346 346 346 345 348 353 355 354 353 352 351 352 354 355 356 357 357 358 0 1 2 3 2 1 0 360 1 5 4 0 358 0 2 2 1 0 0 0 360 1 3 6 9 10 9 10 11 11 10 9 7 6 4 3
348 346 344 342 334 333 343 348 341 288 290 335 336 337 337 338 339 339 342 344 343 346 348 346 345 345 344 345 346 347 350 350 347 345 344 345 350 354 354 352 351 351 351 351 351 352 354 355 356 357 358 358 360 1 360 359 357 356 359 1 0 358 356 357 358 358 357 356 356 357 356 356 359 3 5 6 5 5 6 7 7 5 3 2 1 360
347 346 344 341 335 333 343 351 357 315 326 327 327 334 338 340 340 340 344 349 348 347 349 347 346 345 344 346 346 346 350 351 347 344 345 347 351 354 353 352 351 352 351 349 348 349 351 353 355 355 355 355 357 357 356 356 356 355 356 356 355 353 353 353 353 351 351 352 352 354 353 351 353 357 360 1 360 358 359 2 3 2 2 3 4 3
347 347 344 341 338 335 341 348 346 320 323 322 326 337 339 341 342 340 342 348 350 347 348 348 346 345 345 345 345 346 350 353 349 346 348 350 351 352 351 351 352 353 351 349 347 347 348 350 352 353 353 353 353 353 353 353 354 356 356 354 351 350 350 350 350 348 347 348 349 352 352 349 348 350 352 354 354 353 354 357 360 2 4 5 6 6
346 345 344 341 340 339 335 330 322 322 326 331 339 340 338 340 341 338 337 343 347 347 348 348 346 346 345 343 344 346 350 354 353 350 351 351 350 350 350 350 351 353 353 351 347 344 345 348 349 349 350 350 349 349 349 349 350 353 355 353 350 349 348 348 348 347 346 345 348 352 352 350 347 346 348 348 348 348 349 354 358 0 3 6 7 7
344 343 343 340 336 337 335 329 327 328 328 335 338 336 336 338 339 336 334 339 347 348 347 347 346 346 345 345 345 346 347 353 357 354 350 349 347 348 350 350 350 352 353 353 349 344 343 345 346 347 347 347 346 345 345 345 345 348 351 352 350 349 347 346 345 346 345 345 348 352 354 354 351 348 349 347 343 343 347 353 356 357 1 6 8 8
342 341 341 338 334 334 333 325 311 292 309 328 333 333 335 336 337 335 334 339 346 346 345 346 345 345 346 346 348 348 347 350 356 355 350 347 345 346 349 350 350 352 354 355 353 348 343 342 344 345 344 343 343 342 340 340 342 344 346 347 348 349 348 347 346 345 346 347 349 351 354 357 356 353 353 350 344 342 346 350 352 354 358 3 6 6
342 339 337 337 334 331 325 312 304 301 310 324 330 332 334 334 334 337 335 335 340 343 343 344 343 344 347 347 348 350 349 348 351 353 351 349 346 345 347 348 349 351 353 355 356 353 347 342 341 342 342 341 341 340 338 337 337 340 343 343 345 346 347 348 348 347 348 348 349 351 353 355 355 353 352 351 346 343 344 345 348 352 357 0 2 2
341 338 335 334 333 330 322 307 308 314 319 327 331 332 331 331 332 334 328 329 336 340 342 343 342 344 347 348 348 350 350 347 349 351 351 350 348 345 345 346 348 350 352 354 357 358 354 347 340 339 340 340 340 339 337 334 333 336 340 341 343 344 344 345 346 348 349 348 347 349 350 351 352 351 350 349 346 343 342 341 346 353 357 358 359 359
339 336 333 332 331 330 323 312 310 320 331 332 330 329 329 329 327 325 326 331 336 339 340 342 343 343 346 348 347 349 350 349 349 350 351 351 349 346 344 345 347 349 351 353 357 359 359 355 346 340 338 338 338 337 335 333 332 334 336 337 339 342 343 343 343 344 346 345 345 346 347 348 349 350 352 351 346 343 342 344 349 356 354 354 357 357
337 334 331 331 332 330 326 321 318 323 328 328 327 325 326 326 322 323 327 332 336 337 339 341 343 343 346 348 347 349 351 350 349 351 352 351 350 347 344 344 346 348 350 353 356 358 0 0 355 347 340 336 335 335 334 332 331 333 334 333 334 337 339 339 339 339 340 340 340 341 341 343 345 348 353 355 349 344 346 349 352 354 351 352 355 355
338 333 328 329 330 326 321 321 320 318 321 324 325 324 324 324 323 324 327 331 334 337 339 341 343 344 346 347 347 349 351 350 350 352 352 352 350 348 345 344 346 347 349 352 355 357 359 2 1 356 349 341 334 331 332 332 331 332 333 332 332 332 334 334 333 333 333 333 333 334 335 337 340 344 350 355 352 347 348 350 350 350 349 350 352 351
337 336 329 326 326 323 322 324 323 323 325 326 327 326 325 325 326 325 327 330 333 336 338 340 343 344 344 346 348 349 350 351 351 352 353 352 351 350 347 346 346 346 348 351 354 356 358 1 2 1 357 350 341 333 330 330 333 333 332 331 331 332 332 333 333 333 333 331 331 331 332 333 336 339 344 349 351 348 346 347 347 346 346 346 347 347
338 338 333 330 329 328 333 336 332 330 332 330 328 329 328 327 327 327 328 330 332 335 337 339 341 343 343 345 347 348 349 351 351 351 352 352 352 352 350 348 347 346 347 349 352 354 357 360 2 3 2 359 353 345 335 330 331 334 332 329 330 332 335 336 338 339 337 336 335 335 334 333 333 334 336 339 344 344 342 342 342 341 341 342 342 344
339 338 335 335 332 330 336 341 336 334 336 334 331 332 331 328 329 329 328 329 331 333 336 338 339 341 342 344 347 347 348 350 351 351 351 352 353 353 352 350 350 348 347 348 350 352 354 357 0 3 4 4 2 357 349 339 333 332 332 331 330 332 335 338 341 341 340 340 342 341 338 334 332 332 331 332 337 340 338 337 337 336 335 336 337 341
338 338 337 336 335 335 340 344 340 338 341 339 334 335 334 331 331 330 329 329 330 332 334 336 337 339 341 343 346 347 347 349 351 351 350 351 352 353 353 353 352 351 349 348 348 349 351 353 357 1 4 5 5 3 359 352 343 335 332 331 331 331 333 337 340 339 337 342 346 345 342 340 336 334 332 330 331 334 334 333 333 332 330 332 335 339
337 338 336 335 337 342 345 345 343 344 346 343 338 337 336 332 331 331 330 329 330 331 332 334 335 338 340 342 344 345 346 348 350 350 350 350 350 353 354 354 354 354 353 350 348 348 348 350 353 357 1 4 5 5 4 360 354 346 338 333 331 330 331 332 334 333 332 336 341 342 342 343 340 336 334 331 330 330 330 331 333 333 333 334 336 338
339 339 339 336 338 344 347 345 344 346 348 346 341 339 337 334 332 331 330 330 330 330 330 332 334 336 338 340 342 344 345 347 348 349 349 349 350 352 354 355 355 355 355 353 350 348 348 348 350 353 356 360 3 4 4 2 0 356 350 342 335 332 330 329 329 327 327 329 333 335 337 339 339 338 336 333 330 329 329 330 333 335 336 337 338 337
341 341 341 338 338 343 346 345 346 347 348 349 347 342 340 338 335 334 332 330 330 329 329 330 331 333 336 338 340 342 344 345 347 348 348 348 349 351 353 355 355 355 356 355 352 350 349 349 349 350 353 356 359 2 3 2 1 1 359 354 347 339 332 329 327 324 323 324 327 330 332 334 336 336 337 336 334 332 329 329 330 333 334 334 335 335